Time,TemperatureF,DewpointF,PressureIn,WindDirection,WindDirectionDegrees,WindSpeedMPH,WindSpeedGustMPH,Humidity,HourlyPrecipIn,Conditions,Clouds,dailyrainin,SoftwareType,DateUTC
2013-11-08 17:37:00,50.1,46.0,30.05,SSW,193,1.0,8.0,84,0.00,,,0.22,weatherlink.com 1.10,2013-11-08 23:37:00,
2013-11-08 17:41:00,50.0,45.0,30.05,SSW,196,4.0,8.0,84,0.00,,,0.22,weatherlink.com 1.10,2013-11-08 23:41:00,
2013-11-08 17:57:00,49.5,45.0,30.05,West,260,0.0,4.0,85,0.00,,,0.22,weatherlink.com 1.10,2013-11-08 23:57:00,
2013-11-08 18:12:00,49.3,45.0,30.05,SSE,167,1.0,4.0,86,0.00,,,0.22,weatherlink.com 1.10,2013-11-09 00:12:00,
2013-11-08 18:27:00,48.7,45.0,30.06,WSW,244,0.0,6.0,86,0.00,,,0.22,weatherlink.com 1.10,2013-11-09 00:27:00,
2013-11-08 18:42:00,48.3,45.0,30.06,SSE,150,2.0,5.0,87,0.00,,,0.22,weatherlink.com 1.10,2013-11-09 00:42:00,
2013-11-08 18:57:00,48.0,45.0,30.06,SW,231,2.0,7.0,88,0.00,,,0.22,weatherlink.com 1.10,2013-11-09 00:57:00,
2013-11-08 19:12:00,47.5,45.0,30.06,SE,128,2.0,6.0,89,0.00,,,0.22,weatherlink.com 1.10,2013-11-09 01:12:00,
2013-11-08 19:27:00,47.6,45.0,30.06,SE,143,1.0,5.0,89,0.00,,,0.22,weatherlink.com 1.10,2013-11-09 01:27:00,
2013-11-08 19:42:00,47.5,45.0,30.07,ESE,111,0.0,7.0,89,0.00,,,0.22,weatherlink.com 1.10,2013-11-09 01:42:00,
2013-11-08 19:56:00,47.3,44.0,30.07,West,260,0.0,7.0,89,0.00,,,0.22,weatherlink.com 1.10,2013-11-09 01:56:00,
2013-11-08 20:11:00,47.2,45.0,30.06,WSW,247,2.0,6.0,90,0.00,,,0.22,weatherlink.com 1.10,2013-11-09 02:11:00,
2013-11-08 20:27:00,47.0,44.0,30.07,West,260,2.0,10.0,90,0.00,,,0.22,weatherlink.com 1.10,2013-11-09 02:27:00,
2013-11-08 20:42:00,46.9,44.0,30.07,West,269,0.0,6.0,90,0.00,,,0.22,weatherlink.com 1.10,2013-11-09 02:42:00,
2013-11-08 20:57:00,46.6,44.0,30.07,West,264,3.0,10.0,90,0.00,,,0.22,weatherlink.com 1.10,2013-11-09 02:57:00,
2013-11-08 21:12:00,46.5,44.0,30.07,West,278,0.0,7.0,91,0.00,,,0.22,weatherlink.com 1.10,2013-11-09 03:12:00,
2013-11-08 21:27:00,46.3,44.0,30.08,WSW,256,0.0,6.0,91,0.00,,,0.22,weatherlink.com 1.10,2013-11-09 03:27:00,
2013-11-08 21:42:00,46.1,44.0,30.07,SE,126,0.0,9.0,91,0.00,,,0.22,weatherlink.com 1.10,2013-11-09 03:42:00,
2013-11-08 21:57:00,46.0,44.0,30.07,WNW,296,2.0,7.0,91,0.00,,,0.22,weatherlink.com 1.10,2013-11-09 03:57:00,
2013-11-08 22:12:00,46.2,44.0,30.07,SW,225,0.0,5.0,91,0.00,,,0.22,weatherlink.com 1.10,2013-11-09 04:12:00,
2013-11-08 22:27:00,46.1,44.0,30.07,WSW,242,0.0,3.0,91,0.00,,,0.22,weatherlink.com 1.10,2013-11-09 04:27:00,
2013-11-08 22:42:00,45.9,44.0,30.06,WSW,250,0.0,5.0,91,0.00,,,0.22,weatherlink.com 1.10,2013-11-09 04:42:00,
2013-11-08 22:57:00,46.0,44.0,30.06,West,275,4.0,8.0,91,0.00,,,0.22,weatherlink.com 1.10,2013-11-09 04:57:00,
2013-11-08 23:12:00,45.8,44.0,30.07,WSW,255,4.0,9.0,92,0.00,,,0.22,weatherlink.com 1.10,2013-11-09 05:12:00,
2013-11-08 23:27:00,45.9,44.0,30.06,West,277,4.0,8.0,92,0.00,,,0.22,weatherlink.com 1.10,2013-11-09 05:27:00,
2013-11-08 23:42:00,46.0,44.0,30.07,WSW,251,3.0,9.0,91,0.00,,,0.22,weatherlink.com 1.10,2013-11-09 05:42:00,
2013-11-08 23:57:00,46.1,44.0,30.06,West,259,0.0,9.0,91,0.00,,,0.22,weatherlink.com 1.10,2013-11-09 05:57:00,